Regional Weather Roundup
Issued by NWS

Home | Current Version | Previous Version | Text Only | Print | Product List | Glossary On
Versions: 1 2 3 4 5 6 7 8 9 10 11 12 13 14 15 16 17 18 19 20 21 22 23 24 25 26 27 28 29 30 31 32 33 34 35 36 37 38 39 40 41 42 43 44 45 46 47 48 49 50
000
ASUS43 KMKX 192121
RWRWI

WISCONSIN REGIONAL WEATHER ROUNDUP
NATIONAL WEATHER SERVICE MILWAUKEE/SULLIVAN WI
400 PM CDT WED JUL 19 2017

NOTE: "FAIR" INDICATES FEW OR NO CLOUDS BELOW 12,000 FEET WITH NO
SIGNIFICANT WEATHER AND/OR OBSTRUCTIONS TO VISIBILITY.

WIZ001-002-006>008-014>016-023>028-192200-
NORTHWEST WISCONSIN

CITY           SKY/WX    TMP DP  RH WIND       PRES   REMARKS
SUPERIOR ARPT  NOT AVBL
ASHLAND        CLOUDY    77  64  64 SW3       30.04F
HAYWARD        PTSUNNY   80  54  40 S8        30.07F HX  80
SIREN          CLOUDY    77  60  54 SE12      29.99F
CUMBERLAND     CLOUDY    73  57  56 CALM      30.09R
RICE LAKE      CLOUDY    77  57  49 S5        30.10R
CHETEK         CLOUDY    79  59  49 S3        30.07S HX  80
LADYSMITH      CLOUDY    81  54  39 S7        30.08F HX  81
EAU CLAIRE     CLOUDY    82  56  40 SE9       30.05S HX  82
MENOMONIE      CLOUDY    79  57  47 E5        30.04R HX  80
NEW RICHMOND   CLOUDY    75  59  57 N3        30.09R
OSCEOLA        LGT RAIN  74  63  67 CALM      30.11R
$$

WIZ003>005-009-010-017-018-192200-
NORTH CENTRAL WISCONSIN

CITY           SKY/WX    TMP DP  RH WIND       PRES   REMARKS
MANITOWISH WTR MOSUNNY   80  52  37 S8        30.08F HX  80
ARBOR VITAE    SUNNY     82  49  31 SW7       30.08F HX  81
WOODRUFF       SUNNY     82  49  31 SW7       30.08F HX  81
RHINELANDER    SUNNY     83  52  34 S7        30.10F HX  82
EAGLE RIVER    SUNNY     81  45  27 SW5       30.08F HX  80
LAND O LAKES   SUNNY     83  45  27 CALM      30.09F HX  81
PHILLIPS       CLOUDY    80  54  39 S7        30.08F HX  80
TOMAHAWK         N/A     80  52  37 SW5       30.10F HX  80
MEDFORD        CLOUDY    79  57  46 S9        30.09F
MERRILL        SUNNY     81  57  43 S6        30.09F HX  81
$$

WIZ029-030-035-036-043>047-192200-
CENTRAL WISCONSIN

CITY           SKY/WX    TMP DP  RH WIND       PRES   REMARKS
WAUSAU         MOSUNNY   80  55  42 S8        30.07F HX  80
MOSINEE        PTSUNNY   81  54  39 SE9       30.11F HX  80
MARSHFIELD     PTSUNNY   80  54  40 S9        30.07F HX  80
STEVENS POINT  MOSUNNY   80  56  43 SE9       30.10S HX  80
WAUPACA        MOSUNNY   84  59  41 S7        30.09F HX  84
WAUTOMA        PTSUNNY   81  62  52 SE6       30.09F HX  82
WISC RAPIDS    CLOUDY    82  58  43 SE10G16   30.09F HX  82
CAMP DOUGLAS   PTSUNNY   82  63  51 SE12      30.06F HX  83
$$

WIZ011>013-019>022-031-037>040-048>050-192200-
NORTHEAST WISCONSIN

CITY           SKY/WX    TMP DP  RH WIND       PRES   REMARKS
ANTIGO         SUNNY     80  58  46 S9        30.10F HX  80
SHAWANO        MOSUNNY   84  57  39 S7        30.08F HX  83
OCONTO         SUNNY     81  50  34 SE6       30.09F HX  80
STURGEON BAY     N/A     78  58  49 SE8       30.10F
GREEN BAY      MOSUNNY   83  59  44 W5        30.09F HX  83
MANITOWOC      PTSUNNY   78  51  38 E8        30.10F
APPLETON       MOSUNNY  N/A N/A N/A VRB6      30.08F
CLINTONVILLE   SUNNY     81  54  39 S7        30.09F HX  80
OSHKOSH        MOSUNNY   81  62  52 E6        30.09F HX  82
$$

WIZ032>034-041-042-053>061-192200-
SOUTHWEST WISCONSIN

CITY           SKY/WX    TMP DP  RH WIND       PRES   REMARKS
LA CROSSE      CLOUDY    87  68  52 SE8       30.01F HX  90
SPARTA         CLOUDY    82  64  54 SE8       30.05F HX  83
VIROQUA        CLOUDY    81  73  76 SE9       30.07F HX  85
BOSCOBEL       PTSUNNY   88  73  61 SE7       30.03F HX  95
PRAIRIE DU CHI PTSUNNY   86  71  60 SE5       30.01F HX  92
PLATTEVILLE    MOSUNNY   86  76  73 SE6       30.07F HX  96
$$

WIZ056-057-062-063-064-067-068-192200-
SOUTH CENTRAL WISCONSIN

CITY           SKY/WX    TMP DP  RH WIND       PRES   REMARKS
REEDSBURG      PTSUNNY   82  71  69 SE5       30.07F HX  86
BARABOO/DELLS    N/A     83  66  56 E6        30.08F HX  86
LONE ROCK      PTSUNNY   83  73  72 E7        30.06F HX  89
MINERAL POINT  MOSUNNY   86  75  70 SE6       30.08S HX  95
MADISON        CLOUDY    81  70  69 SE9       30.08F HX  84
MIDDLETON      CLOUDY    82  71  67 E8        30.09F HX  86
WATERTOWN      MOSUNNY   83  71  67 SE6       30.08F HX  87
MONROE         PTSUNNY   82  72  69 E3        30.08F HX  87
JANESVILLE     MOSUNNY   84  72  65 NE3       30.07F HX  89
$$

WIZ051-052-058>065-066-070>072-192200-
SOUTHEAST WISCONSIN

CITY           SKY/WX    TMP DP  RH WIND       PRES   REMARKS
MILWAUKEE      PTSUNNY   78  63  59 NE9       30.10F HX  80
WAUKESHA       MOSUNNY   81  61  50 NE8       30.12F HX  81
MILWAUKEE/TIMM SUNNY     81  52  36 NE6       30.11F HX  80
RACINE         SUNNY     77  67  71 N9        30.12F
KENOSHA        SUNNY     81  70  69 E10       30.10S HX  84
FOND DU LAC    MOSUNNY   83  63  50 NE6       30.09F HX  84
SHEBOYGAN      CLOUDY    78  58  49 NE7       30.11S
WEST BEND      CLOUDY    79  59  50 SE6       30.10F HX  80
JUNEAU         CLOUDY    81  66  60 SE3       30.10F HX  83
$$

LSZ147-162-192200-
LAKE SUPERIOR

STATION/POSITION TIME  TEMP    WIND        PRES    WAVE
                       AIR SEA DIR/SP/G            HT/PER
                 (UTC) (F)     (DEG/KT/KT) (MB)    (FT/S)
W MID LAKE BUOY  2050   58 48  140/  2/  2 1017.0F   0
DEVILS ISLAND    2100   72     210/  6/  7 1016.6F
PORT WING        2100   70      70/  2/ 12 1015.9
SAXON HARBOR     2030   75      30/  2/  3 1016.9F
$$

LMZ867-665-643>646-192200-
LAKE MICHIGAN

STATION/POSITION TIME  TEMP    WIND        PRES    WAVE
                       AIR SEA DIR/SP/G            HT/PER
                 (UTC) (F)     (DEG/KT/KT) (MB)    (FT/S)
CHAMBERS ISLAND  2040   80     180/  4/  6 1018.6S
S GREEN BAY BUOY 2100   78 72   70/  2/  4 1018.7
N MID LAKE BUOY  2050   68 66  200/  6/  6 1019.4F   1
NORTHPORT PIER   2040   74     150/  7/  9 1018.6F
KEWAUNEE LAKESHO 2054   72     160/  4/  5 1018.8F
SHEBOYGAN LAKESH 2100   69      50/  3/  3 1018.9F
PORT WASHINGTON  2040   74      60/  3/  4 1020.3F
ATWATER BUOY     2009   69 68   20/  6/  6 1020.0
MILWAUKEE LAKESH 2100   69      50/  6/  7   N/A
S MID LAKE BUOY  2050   70 71   10/  8/ 10 1019.2S   1
KENOSHA   LAKESH 2100   68      40/  9/ 11 1019.0
$$

TC  - TEMPERATURE IN CELSIUS
VSB - VISIBILITY IN STATUTE MILES
WCI - WIND CHILL INDEX
HX  - HEAT INDEX





USA.gov is the U.S. government's official web portal to all federal, state and local government web resources and services.